Simultaneous Nadir Overpasses (SNOs) Predictions

Prediction of SNOs between AQUA and NOAA-19 Satellite Orbit:

Table of predicted SNOs for the next 14.0 days since TLE Epoch: 9/13/2013
Index Date (AQUA) Time (AQUA) Lat,Lon (AQUA) SZA (AQUA ) Date (NOAA-19) Time (NOAA-19) Lat,Lon (NOAA-19) SZA (NOAA-19 ) Distance(km) Time Diff (sec)
1 09/14/2013 20:55:22 -63.40, 53.41 119.52 09/14/2013 20:54:59 -63.40, 53.37 119.52 2.01 23
2 09/14/2013 21:42:33 55.41,-133.75 53.22 09/14/2013 21:43:45 55.41,-133.74 53.28 0.50 72
3 09/17/2013 01:39:40 -63.33, -17.62 118.73 09/17/2013 01:39:12 -63.33, -17.61 118.73 0.70 28
4 09/17/2013 02:27:06 56.22, 154.73 54.82 09/17/2013 02:28:14 56.22, 154.74 54.86 0.52 68
5 09/19/2013 06:24:11 -64.02, -89.27 117.22 09/19/2013 06:23:39 -64.02, -89.28 117.23 0.34 32
6 09/19/2013 07:11:35 56.82, 83.32 56.22 09/19/2013 07:12:39 56.81, 83.34 56.26 1.05 64
7 09/21/2013 11:08:37 -64.43,-160.72 115.97 09/21/2013 11:08:01 -64.44,-160.72 115.97 0.33 36
8 09/21/2013 11:56:20 58.36, 11.34 58.48 09/21/2013 11:57:21 58.36, 11.31 58.51 2.05 61
9 09/23/2013 15:52:59 -64.64, 128.03 114.91 09/23/2013 15:52:19 -64.63, 128.04 114.92 0.66 40
10 09/23/2013 16:40:41 58.57, -59.86 59.54 09/23/2013 16:41:38 58.57, -59.87 59.57 0.49 57
11 09/25/2013 20:37:32 -65.53, 56.12 113.21 09/25/2013 20:36:49 -65.54, 56.08 113.21 2.11 43




NCC Satellite Simultaneous Nadir Overpasses (SNOs) Prediction Service
